Hourly Data Report for October 06, 2017

All times are specified in Local Standard Time (LST). Add 1 hour to adjust for Daylight Saving Time where and when it is observed.

TIMMINS A
ONTARIO

48°34'14.000" N
81°22'36.000" W
294.70 m
6078286
71739
YTS

Download Data

Hourly Data (October 2017)
Hourly Data Report for October 6, 2017
Temp Definition
°C
Dew Point Temp Definition
°C
Rel Hum Definition
%
Wind Dir Definition
10's deg

Wind Spd Definition
km/h
Visibility Definition
km
Stn Press Definition
kPa
Hmdx Definition


Wind Chill Definition


Weather Definition


TIME
00:00 Legend Double Dagger 5.9 4.5 91 23 5 24.1 97.97     LegendNANA
01:00 Legend Double Dagger 5.5 4.2 91 26 3 24.1 97.98     Mostly Cloudy
02:00 Legend Double Dagger 5.8 4.2 90 26 6 24.1 98.00     LegendNANA
03:00 Legend Double Dagger 4.7 3.3 90 28 9 24.1 98.03     LegendNANA
04:00 Legend Double Dagger 3.5 2.2 91 27 8 24.1 98.07     Mostly Cloudy
05:00 Legend Double Dagger 3.0 1.8 92 26 8 24.1 98.07     LegendNANA
06:00 Legend Double Dagger 0.5 -0.1 96 24 5 24.1 98.10     LegendNANA
07:00 Legend Double Dagger -0.1 -0.5 97 19 8 24.1 98.13   -3 Clear
08:00 Legend Double Dagger 3.8 2.2 89 25 5 24.1 98.15     LegendNANA
09:00 Legend Double Dagger 7.2 3.1 75 21 4 24.1 98.16     LegendNANA
10:00 Legend Double Dagger 9.1 1.0 57 23 8 24.1 98.18     Clear
11:00 Legend Double Dagger 10.9 0.5 48 23 16 24.1 98.14     LegendNANA
12:00 Legend Double Dagger 12.2 1.0 46 24 18 24.1 98.09     LegendNANA
13:00 Legend Double Dagger 13.2 1.6 45 23 14 24.1 98.02     Mainly Clear
14:00 Legend Double Dagger 14.4 2.6 44 23 12 24.1 97.96     LegendNANA
15:00 Legend Double Dagger 14.4 1.2 40 25 14 24.1 97.90     LegendNANA
16:00 Legend Double Dagger 14.5 1.4 41 24 13 24.1 97.89     Clear
17:00 Legend Double Dagger 13.6 1.8 45 23 9 24.1 97.89     LegendNANA
18:00 Legend Double Dagger 7.5 3.7 77 18 4 24.1 97.78     LegendNANA
19:00 Legend Double Dagger 7.0 2.7 74 20 9 24.1 97.81     Mainly Clear
20:00 Legend Double Dagger 6.1 2.4 77 19 7 24.1 97.82     LegendNANA
21:00 Legend Double Dagger 4.4 2.4 87 17 7 24.1 97.79     LegendNANA
22:00 Legend Double Dagger 4.6 2.4 85 19 9 24.1 97.79     Clear
23:00 Legend Double Dagger 3.0 2.1 94 17 5 24.1 97.76     LegendNANA

Notes on Data Quality.

Legend

  • E = Estimated
  • M = Missing
  • NA = Not Available
  • ‡ = Partner data that is not subject to review by the National Climate Archives
Date modified: